Regional Weather Roundup
Issued by NWS

Home | Current Version | Previous Version | Graphics & Text | Print | Product List | Glossary Off
Versions: 1 2 3 4 5 6 7 8 9 10 11 12 13 14 15 16 17 18 19 20 21 22 23 24 25 26 27 28 29 30 31 32 33 34 35 36 37 38 39 40 41 42 43 44 45 46 47 48 49 50

000
ASUS43 KMKX 050000
RWRWI

WISCONSIN REGIONAL WEATHER ROUNDUP
NATIONAL WEATHER SERVICE MILWAUKEE/SULLIVAN WI
700 PM CDT WED MAY 04 2016

NOTE: "FAIR" INDICATES FEW OR NO CLOUDS BELOW 12,000 FEET WITH NO
SIGNIFICANT WEATHER AND/OR OBSTRUCTIONS TO VISIBILITY.

WIZ001-002-006>008-014>016-023>028-050100-
NORTHWEST WISCONSIN

CITY           SKY/WX    TMP DP  RH WIND       PRES   REMARKS
SUPERIOR ARPT  SUNNY     50  29  44 NE8       29.98S
ASHLAND        SUNNY     50  34  54 N8        29.99S
6HR MIN TEMP:  50; 6HR MAX TEMP:  57;

HAYWARD        SUNNY     57  26  30 NE9       29.96R
6HR MIN TEMP:  56; 6HR MAX TEMP:  60;

SIREN          SUNNY     63  18  17 NE15      29.94S
CUMBERLAND     SUNNY     59  18  20 N13G20    29.94S
RICE LAKE      SUNNY     61  16  17 N15       29.95R
CHETEK         SUNNY     60  23  24 N10G20    29.94R
LADYSMITH      SUNNY     56  22  27 N14G22    29.97R
EAU CLAIRE     NOT AVBL
MENOMONIE      NOT AVBL
NEW RICHMOND   SUNNY     64  17  16 N14       29.94S
OSCEOLA        SUNNY     64  20  18 N8        29.96S
$$

WIZ003>005-009-010-017-018-050100-
NORTH CENTRAL WISCONSIN

CITY           SKY/WX    TMP DP  RH WIND       PRES   REMARKS
MANITOWISH WTR SUNNY     48  31  52 N8G18     29.96R
ARBOR VITAE    SUNNY     49  32  51 NE10G22   29.95R
WOODRUFF       SUNNY     49  32  51 NE10G22   29.95R
RHINELANDER    SUNNY     48  30  49 N10       29.95R
6HR MIN TEMP:  45; 6HR MAX TEMP:  50;

EAGLE RIVER    MOSUNNY   46  29  53 N16       29.94S
LAND O LAKES   MOSUNNY   46  31  57 N9        29.96R
PHILLIPS       SUNNY     50  31  47 N14       29.95R
6HR MIN TEMP:  50; 6HR MAX TEMP:  53;

TOMAHAWK       SUNNY     49  30  48 N9G18     29.94S
MEDFORD        SUNNY     52  32  46 N17       29.91S
MERRILL        SUNNY     50  31  48 N14G22    29.94R
$$

WIZ029-030-035-036-043>047-050100-
CENTRAL WISCONSIN

CITY           SKY/WX    TMP DP  RH WIND       PRES   REMARKS
WAUSAU         SUNNY     53  30  41 N15G22    29.90R
6HR MIN TEMP:  53; 6HR MAX TEMP:  60;

MOSINEE        MOSUNNY   52  30  43 N15G23    29.92R
MARSHFIELD     SUNNY     55  29  36 N18G25    29.90R
6HR MIN TEMP:  55; 6HR MAX TEMP:  61;

STEVENS POINT  MOSUNNY   52  31  44 N13G23    29.90R
WAUPACA        PTSUNNY   57  32  38 N15G24    29.88R
WAUTOMA        SUNNY     55  32  41 N13G23    29.88R
6HR MIN TEMP:  55; 6HR MAX TEMP:  60;

WISC RAPIDS    SUNNY     55  29  36 N18G28    29.91R
6HR MIN TEMP:  55; 6HR MAX TEMP:  63;

CAMP DOUGLAS   NOT AVBL
$$

WIZ011>013-019>022-031-037>040-048>050-050100-
NORTHEAST WISCONSIN

CITY           SKY/WX    TMP DP  RH WIND       PRES   REMARKS
ANTIGO         SUNNY     47  33  57 N17       29.91R
SHAWANO        PTCLDY    52  34  50 N20       29.89S
6HR MIN TEMP:  52; 6HR MAX TEMP:  58;

OCONTO         MOCLDY    48  33  55 N17G23    29.89R
STURGEON BAY   CLEAR     45  30  57 N16G25    29.92R
6HR MIN TEMP:  45; 6HR MAX TEMP:  48;

GREEN BAY      PTCLDY    50  35  56 NE18G24   29.89R
6HR MIN TEMP:  49; 6HR MAX TEMP:  54;

MANITOWOC      NOT AVBL
APPLETON       MOCLDY    52  32  46 NE16      29.86R
CLINTONVILLE   CLOUDY    54  32  43 N13       29.88R
OSHKOSH        CLOUDY    51  38  60 NE12      29.86R
6HR MIN TEMP:  51; 6HR MAX TEMP:  57;

$$

WIZ032>034-041-042-053>061-050100-
SOUTHWEST WISCONSIN

CITY           SKY/WX    TMP DP  RH WIND       PRES   REMARKS
LA CROSSE      SUNNY     63  22  20 N16       29.89R
6HR MIN TEMP:  62; 6HR MAX TEMP:  66;

SPARTA         SUNNY     61  20  20 N15G23    29.89R
VIROQUA        SUNNY     60  23  24 N12G23    29.88R
BOSCOBEL       SUNNY     63  24  22 NW12G22   29.87R
6HR MIN TEMP:  61; 6HR MAX TEMP:  66;

PRAIRIE DU CHI SUNNY     62  26  25 NW16      29.87R
PLATTEVILLE    SUNNY     61  31  32 NW13      29.85S
$$

WIZ056-057-062-063-064-067-068-050100-
SOUTH CENTRAL WISCONSIN

CITY           SKY/WX    TMP DP  RH WIND       PRES   REMARKS
REEDSBURG      SUNNY     59  25  27 N18G24    29.85R
BARABOO/DELLS  SUNNY     60  21  22 N15G23    29.85R
LONE ROCK      NOT AVBL
MINERAL POINT  SUNNY     61  19  20 N18G25    29.85R
MADISON        MOSUNNY   56  32  40 N15       29.83R
6HR MIN TEMP:  54; 6HR MAX TEMP:  60;

MIDDLETON      MOSUNNY   60  27  27 N12G18    29.83S
WATERTOWN      CLEAR     55  36  50 N14G22    29.83R
MONROE         PTSUNNY   59  28  31 N13G21    29.82S
JANESVILLE     MOCLDY    59  34  38 N13G18    29.82R
$$

WIZ051-052-058>065-066-070>072-050100-
SOUTHEAST WISCONSIN

CITY           SKY/WX    TMP DP  RH WIND       PRES   REMARKS
MILWAUKEE      CLOUDY    43  35  73 N17G24    29.86R
6HR MIN TEMP:  43; 6HR MAX TEMP:  48;

WAUKESHA       MOCLDY    45  36  70 E9        29.85R
MILWAUKEE/TIMM MOCLDY    45  32  61 NE15      29.86R
RACINE         CLOUDY    42  34  73 N13G22    29.87R
6HR MIN TEMP:  42; 6HR MAX TEMP:  46;

BURLINGTON     CLOUDY    47  37  66 E13       29.83R
KENOSHA        CLOUDY    44  35  70 NE15      29.85R
6HR MIN TEMP:  44; 6HR MAX TEMP:  50;

FOND DU LAC    CLOUDY    51  37  58 NE14G22   29.87R
6HR MIN TEMP:  51; 6HR MAX TEMP:  56;

SHEBOYGAN      PTCLDY    44  36  73 NE12      29.87R
6HR MIN TEMP:  44; 6HR MAX TEMP:  50;

WEST BEND      CLOUDY    46  36  66 NE9       29.85R
JUNEAU         MOCLDY    54  35  47 N17G28    29.85R
$$

LSZ147-162-050100-
LAKE SUPERIOR

STATION/POSITION TIME  TEMP    WIND        PRES    WAVE
                       AIR SEA DIR/SP/G            HT/PER
                 (UTC) (F)     (DEG/KT/KT) (MB)    (FT/S)
W MID LAKE BUOY  2250   39 37  250/  6/  6 1016.5R   1/ 5
DEVILS ISLAND    2300   45     130/  6/  7 1016.1R
SAXON HARBOR     2340   44     310/  3/  7 1015.2F
$$

LMZ867-665-643>646-050100-
LAKE MICHIGAN

STATION/POSITION TIME  TEMP    WIND        PRES    WAVE
                       AIR SEA DIR/SP/G            HT/PER
                 (UTC) (F)     (DEG/KT/KT) (MB)    (FT/S)
CHAMBERS ISLAND  2300   45     340/ 15/ 20 1012.5R
N MID LAKE BUOY  2250   41 39  340/ 16/ 17 1011.2R   4/ 5
NORTHPORT PIER   2300   41     340/ 22/ 25 1012.2R
ALGOMA LAKESHORE 2315           20/ 16/ 22   N/A
KEWAUNEE LAKESHO 2300                      1010.8R
SHEBOYGAN LAKESH 2300   42      20/ 20/ 22 1011.4R
PORT WASHINGTON  2300   45      30/ 14/ 18 1011.9
S MID LAKE BUOY  2250   42 40   10/ 23/ 29 1008.5R   8/ 8
KENOSHA   LAKESH 2300   44      20/ 20/ 23 1010.5R
$$

TC  - TEMPERATURE IN CELSIUS
VSB - VISIBILITY IN STATUTE MILES
WCI - WIND CHILL INDEX
HX  - HEAT INDEX




USA.gov is the U.S. government's official web portal to all federal, state and local government web resources and services.